Wind_Speed
50 53 55 57 60 62 62 61 60 59 55 48 43 44 48 45 39 37 36 34 35 34 33 32 31 31 30 31 31 35 40 43 46 51 53 58 63 69
56 58 60 62 63 63 61 59 59 60 56 45 38 40 46 45 41 36 32 33 34 34 33 30 29 30 32 33 33 36 39 42 46 49 53 56 60 63
61 63 64 64 61 58 57 55 54 54 49 39 32 36 41 39 37 33 27 28 31 31 30 31 32 32 34 35 35 35 38 41 44 50 52 55 59 60
64 65 63 59 55 53 52 50 48 46 42 34 29 33 33 30 27 21 17 19 23 27 30 32 34 36 35 34 37 39 41 42 44 47 51 53 55 60
64 62 59 54 49 48 46 43 41 40 38 31 26 28 27 23 18 15 16 18 20 23 25 27 30 31 32 33 35 39 42 44 44 43 46 49 51 57
62 58 53 48 44 42 39 38 37 36 31 25 23 23 22 19 15 14 15 16 19 20 21 24 26 27 30 35 39 43 46 48 50 48 44 46 47 46
52 47 44 41 38 36 34 33 31 28 24 21 19 19 18 14 13 13 14 16 18 18 18 20 22 26 31 35 40 44 44 43 45 46 45 44 45 41
48 44 42 39 35 31 28 27 24 22 20 17 16 14 13 11 10 11 13 16 15 15 16 18 21 24 28 29 32 34 35 38 42 43 48 42 42 43
43 37 34 31 25 21 22 22 20 17 16 15 13 11 9 7 8 9 12 14 12 12 13 14 17 20 20 20 18 19 24 30 38 47 54 43 40 44
34 31 26 22 19 19 21 20 17 13 13 13 12 11 8 5 6 9 11 11 10 7 6 7 9 10 14 10 6 9 8 13 35 50 52 44 41 41
31 26 21 18 19 18 17 15 11 10 12 11 11 9 5 6 6 6 7 6 3 2 3 4 7 10 9 3 1 1 9 24 40 47 46 47 45 41
23 19 17 16 15 13 10 10 11 12 11 12 12 8 7 8 7 9 9 5 2 5 8 8 10 10 7 8 11 11 19 29 37 40 43 48 46 43
14 11 10 9 8 4 8 13 14 13 12 12 10 9 10 11 12 12 8 3 3 7 13 12 13 13 13 10 12 16 21 30 38 45 48 50 48 44
12 10 9 7 2 7 12 14 14 13 11 11 10 11 12 12 12 10 7 1 3 8 14 14 13 10 16 18 16 19 23 31 39 44 50 55 54 52
13 10 8 5 6 10 12 13 13 10 10 11 12 12 13 12 11 10 6 3 6 8 10 12 12 11 15 23 26 31 34 35 41 47 51 54 55 47
14 11 8 8 8 11 13 11 9 10 11 11 11 11 12 13 13 10 6 6 10 12 12 17 19 13 14 23 34 41 43 41 41 50 53 51 49 38
12 11 10 10 12 12 13 14 15 15 14 11 9 11 16 18 14 11 8 10 14 17 15 17 22 23 24 28 26 28 34 36 43 44 43 47 41 33
11 10 11 14 17 18 20 19 17 15 15 13 13 15 16 16 12 10 11 12 13 13 13 15 19 25 27 27 28 29 29 30 33 37 33 36 33 30
11 11 12 18 19 19 20 18 15 12 12 12 11 10 12 12 9 9 12 14 14 14 17 21 26 29 31 31 33 29 28 32 33 37 37 31 26 26
10 10 13 19 19 19 18 16 15 13 12 12 11 12 13 12 9 12 17 20 19 19 20 21 28 33 33 29 27 26 27 32 36 35 30 28 29 27
9 10 13 17 19 18 15 13 13 14 14 12 13 15 15 12 13 18 22 22 21 20 20 20 23 28 30 28 25 23 26 29 30 28 26 27 28 27
8 11 13 17 19 18 15 12 12 12 10 11 12 14 14 14 19 23 22 20 20 21 24 23 21 22 25 25 25 26 29 30 27 23 23 23 25 25
6 10 14 16 18 18 16 14 13 9 7 9 9 11 12 15 21 23 22 19 21 22 23 23 21 19 21 25 27 26 25 23 21 19 20 19 21 23
Wind_Direction
294 294 294 295 296 296 294 293 294 295 297 294 283 272 267 269 273 273 264 258 258 258 261 262 257 252 246 241 235 234 235 237 235 232 232 232 233 233
296 295 296 296 295 293 291 292 293 294 296 294 280 262 259 262 271 276 266 254 254 257 259 258 251 245 243 242 242 241 241 241 241 241 238 234 233 232
298 297 296 295 293 290 289 291 291 293 295 292 275 256 255 262 273 276 263 250 249 250 248 248 248 251 250 248 246 246 245 245 248 247 242 236 234 235
298 298 297 295 292 290 290 289 289 291 291 286 266 254 255 263 272 264 248 238 240 241 243 245 247 251 250 252 252 253 249 248 249 247 240 237 233 233
300 299 297 294 291 289 288 285 286 288 287 277 252 251 254 264 262 248 237 236 241 241 247 250 249 245 250 253 252 252 250 250 247 245 238 234 232 230
301 301 299 295 290 287 285 284 286 287 282 265 245 244 253 260 246 241 241 244 242 250 257 255 249 248 252 252 255 258 258 256 251 243 235 226 225 225
306 308 304 298 290 285 284 285 286 283 273 256 237 238 248 247 237 236 245 252 257 256 261 252 248 253 255 261 261 260 255 253 249 238 223 217 214 213
307 306 303 298 292 285 282 284 285 278 265 242 226 231 233 238 238 237 247 255 259 259 255 248 253 259 263 269 271 264 260 252 243 226 205 204 207 204
308 307 303 298 294 284 281 286 287 272 249 223 214 200 215 235 241 236 239 244 251 260 249 256 268 274 271 278 283 272 265 251 227 206 194 195 198 197
313 310 306 300 295 286 284 284 280 254 219 202 195 196 200 204 222 221 218 235 251 251 269 290 300 307 293 288 287 305 295 210 184 177 179 185 185 186
309 306 298 291 290 286 281 269 249 209 185 178 176 180 191 200 202 201 203 210 214 16 26 13 23 10 354 18 33 322 138 138 154 167 176 176 171 172
310 304 298 294 294 287 259 222 195 171 152 156 168 180 191 184 177 164 159 160 97 58 64 48 43 35 42 58 77 123 146 146 151 159 164 166 166 169
323 316 310 303 302 264 192 177 166 148 144 152 155 157 165 166 163 161 156 135 61 70 74 68 62 66 65 76 89 112 138 149 153 157 161 162 164 167
338 337 333 325 324 157 163 161 150 144 151 157 159 160 164 166 166 164 159 178 59 67 77 81 62 61 63 88 95 111 128 144 151 158 161 161 163 167
4 3 0 27 102 139 148 148 147 152 161 168 176 180 180 176 166 153 153 155 111 106 104 85 68 68 89 99 109 116 122 133 144 151 157 157 155 151
3 12 35 69 105 128 134 138 146 153 158 168 178 187 187 170 155 148 150 139 122 119 106 108 120 106 103 118 121 126 131 132 141 146 140 144 144 146
20 41 71 86 111 121 127 133 137 143 150 155 151 151 153 151 145 147 145 135 120 116 112 107 116 132 130 125 129 127 131 125 130 137 131 132 132 143
37 54 75 99 110 118 126 127 130 137 141 138 131 129 136 144 143 145 150 141 125 121 128 132 132 141 146 138 127 125 124 123 128 137 144 149 148 154
47 52 90 114 115 119 122 122 124 130 143 154 157 146 142 146 142 145 148 136 117 111 125 136 142 143 144 141 134 124 128 139 140 144 149 153 156 157
44 56 107 125 126 127 127 118 111 113 123 134 144 152 153 149 143 144 144 135 121 115 114 123 140 145 141 139 137 137 140 150 154 156 157 161 163 166
46 69 119 138 140 138 130 121 114 109 108 104 115 129 132 129 138 143 141 138 132 122 116 117 130 145 146 144 149 157 161 164 164 160 161 165 170 173
62 80 119 144 152 150 143 141 142 133 105 88 102 120 119 120 135 142 143 142 139 131 125 124 128 137 141 144 151 164 173 176 176 174 175 180 180 175
84 93 113 137 155 164 163 157 155 144 109 100 102 108 112 123 135 142 147 149 148 142 133 127 127 132 140 146 149 153 159 166 170 175 178 183 185 181
Height
5636 5630 5624 5618 5612 5606 5599 5593 5591 5589 5586 5579 5575 5573 5569 5568 5568 5567 5568 5570 5573 5574 5575 5575 5575 5577 5579 5582 5586 5593 5601 5608 5615 5623 5631 5638 5645 5652
5621 5615 5607 5601 5594 5588 5582 5577 5573 5570 5569 5563 5561 5558 5554 5554 5555 5555 5555 5557 5560 5563 5564 5565 5566 5568 5571 5575 5579 5584 5590 5596 5602 5608 5615 5623 5630 5635
5604 5597 5590 5584 5577 5571 5566 5562 5557 5553 5552 5550 5548 5544 5543 5544 5544 5543 5544 5546 5550 5553 5555 5557 5559 5561 5564 5567 5570 5574 5578 5583 5587 5592 5598 5606 5614 5621
5586 5579 5572 5566 5560 5555 5551 5548 5544 5540 5538 5539 5536 5534 5534 5534 5534 5534 5535 5538 5541 5544 5547 5549 5550 5552 5554 5557 5559 5562 5565 5569 5573 5577 5582 5589 5598 5605
5568 5561 5555 5550 5545 5540 5537 5534 5532 5528 5526 5526 5525 5524 5526 5526 5527 5528 5529 5532 5534 5536 5539 5540 5542 5544 5546 5548 5548 5549 5551 5554 5558 5562 5567 5574 5581 5589
5549 5542 5537 5533 5530 5527 5524 5522 5520 5518 5516 5515 5515 5517 5518 5520 5522 5522 5525 5526 5528 5531 5533 5534 5535 5536 5537 5536 5535 5535 5537 5539 5542 5548 5554 5561 5569 5577
5535 5528 5523 5518 5516 5514 5513 5512 5510 5508 5508 5507 5509 5511 5512 5514 5516 5518 5521 5521 5523 5526 5527 5528 5528 5528 5526 5525 5522 5520 5520 5522 5524 5531 5542 5551 5561 5570
5523 5517 5511 5507 5505 5504 5504 5504 5502 5501 5501 5502 5504 5506 5508 5510 5512 5515 5517 5517 5519 5521 5522 5522 5521 5519 5516 5513 5508 5505 5504 5505 5508 5516 5530 5543 5553 5564
5511 5507 5502 5498 5496 5497 5498 5497 5496 5495 5496 5498 5500 5503 5505 5507 5509 5511 5512 5514 5516 5517 5518 5517 5515 5511 5506 5502 5497 5493 5489 5487 5489 5500 5519 5536 5548 5559
5502 5499 5495 5492 5491 5492 5492 5492 5491 5491 5493 5495 5498 5502 5504 5506 5507 5508 5510 5511 5512 5514 5515 5512 5508 5503 5499 5495 5492 5487 5480 5473 5479 5494 5514 5530 5544 5556
5494 5491 5489 5488 5486 5486 5486 5486 5487 5489 5491 5495 5498 5501 5504 5506 5507 5508 5509 5510 5512 5513 5512 5509 5505 5500 5495 5493 5491 5487 5484 5481 5487 5500 5515 5530 5544 5554
5487 5485 5483 5482 5481 5481 5481 5483 5485 5488 5491 5494 5498 5501 5504 5506 5507 5508 5509 5510 5513 5513 5511 5507 5504 5501 5496 5493 5491 5490 5491 5492 5497 5507 5520 5534 5547 5556
5484 5481 5480 5478 5478 5477 5479 5482 5485 5488 5491 5494 5498 5501 5504 5506 5508 5509 5511 5512 5514 5513 5511 5508 5506 5505 5500 5496 5495 5496 5498 5501 5507 5516 5527 5538 5549 5560
5484 5481 5479 5477 5476 5477 5479 5483 5486 5489 5492 5495 5499 5502 5505 5508 5510 5512 5514 5515 5515 5514 5513 5511 5510 5508 5507 5502 5503 5503 5506 5510 5515 5524 5533 5541 5550 5560
5485 5482 5480 5478 5477 5479 5481 5485 5488 5490 5493 5496 5500 5503 5506 5510 5513 5515 5516 5517 5517 5515 5516 5518 5517 5516 5516 5514 5514 5515 5517 5522 5527 5534 5542 5551 5560 5569
5487 5484 5482 5481 5481 5482 5484 5487 5489 5492 5495 5498 5502 5504 5508 5512 5516 5518 5519 5519 5520 5519 5520 5524 5526 5525 5524 5524 5525 5528 5530 5534 5538 5543 5551 5560 5570 5580
5489 5487 5485 5485 5485 5486 5488 5490 5492 5495 5498 5501 5503 5506 5509 5514 5518 5520 5521 5522 5524 5524 5525 5528 5531 5534 5534 5534 5537 5541 5544 5547 5552 5558 5565 5571 5580 5588
5492 5490 5489 5489 5490 5491 5493 5495 5497 5499 5502 5505 5507 5510 5514 5518 5520 5521 5522 5525 5528 5531 5531 5532 5536 5540 5543 5543 5546 5550 5554 5557 5561 5568 5577 5585 5592 5599
5494 5493 5492 5493 5495 5496 5498 5500 5501 5503 5506 5509 5511 5514 5517 5520 5522 5523 5525 5528 5532 5535 5537 5537 5540 5544 5548 5551 5553 5558 5563 5568 5573 5580 5588 5593 5598 5604
5497 5496 5495 5497 5500 5502 5503 5505 5507 5509 5511 5513 5515 5517 5520 5522 5524 5527 5530 5533 5537 5540 5542 5543 5545 5549 5553 5558 5562 5565 5570 5576 5582 5588 5594 5598 5603 5609
5500 5499 5498 5501 5504 5506 5508 5510 5512 5514 5516 5518 5520 5521 5523 5525 5527 5531 5535 5540 5543 5545 5546 5549 5552 5556 5559 5563 5568 5574 5580 5584 5588 5592 5597 5602 5607 5611
5503 5502 5502 5504 5507 5509 5512 5514 5516 5518 5520 5522 5523 5525 5527 5529 5531 5535 5539 5544 5548 5550 5552 5554 5558 5562 5565 5569 5574 5579 5585 5591 5595 5598 5602 5605 5608 5612
5505 5505 5506 5507 5509 5512 5515 5518 5520 5522 5524 5525 5527 5528 5530 5532 5534 5539 5544 5548 5551 5554 5557 5560 5564 5568 5571 5575 5578 5583 5588 5592 5597 5601 5605 5608 5611 5614